Flag for French Polynesia Weather past 2 weeks in Taiohae, Marquesas Islands, French Polynesia

Now
72 °F

Mild.


Feels Like: 73 °F
Forecast: 77 / 82 °F
Wind: No wind

Location: Atuona

Current Time: Jul 28, 2015 at 4:43:26 AM

Latest Report: Jul 28, 2015 at 3:30 AM


Visibility: N/A

Pressure: 29.85 "Hg

Humidity: 80%

Dew point: 66 °F

Location of TaiohaeLocation

Historic Weather in Taiohae — Graph

°F

Taiohae temperature yesterday

Maximum temperature yesterday: 83 °F (at 10:30 AM)
Minimum temperature yesterday: 72 °F (at 12:30 AM)
Average temperature yesterday: 76 °F

Past Weeks' High & Low Weather Summary

 TemperatureHumidityPressure
High86 °F (Jul 22, 9:30 AM)93% (Jul 25, 4:30 AM)30.02 "Hg (Jul 25, 4:30 AM)
Low71 °F (Jul 15, 4:30 AM)57% (Jul 20, 12:30 PM)29.80 "Hg (Jul 23, 3:30 PM)
Average77 °F77%29.90 "Hg
* Reported Jul 13 2:30 AM — Jul 28 2:30 AM, Taiohae, Weather by CustomWeather, © 2015

Note: Actual official high and low records may vary slightly from our data, if they occured in-between our weather recording intervals... More about our weather records

Advertising

Taiohae weather history for previous 24 hours

 ConditionsComfort  
Time TempWeatherWind HumidityBarometerVisibility
2:30 AM
Tue, Jul 28
72 °FMild.No wind81%29.85 "HgN/A
1:30 AM73 °FMild.6 mph81%29.86 "HgN/A
12:30 AM72 °FMild.2 mph80%29.88 "HgN/A
11:30 PM
Mon, Jul 27
73 °FMild.2 mph83%29.89 "HgN/A
10:30 PM73 °FMild.1 mph83%29.90 "HgN/A
8:30 PM74 °FMild.2 mph82%29.89 "HgN/A
7:30 PM75 °FMild.2 mph78%29.88 "HgN/A
6:30 PM76 °FMild.2 mph78%29.86 "HgN/A
5:30 PM78 °FWarm.9 mph72%29.85 "HgN/A
4:30 PM80 °FPartly sunny.12 mph70%29.83 "Hg22 mi
3:30 PM80 °FOvercast.10 mph71%29.81 "Hg22 mi
2:30 PM81 °FOvercast.10 mph67%29.83 "Hg22 mi
12:30 PM82 °FWarm.9 mph64%29.88 "HgN/A
10:30 AM83 °FOvercast.3 mph65%29.92 "Hg22 mi
9:30 AM78 °FOvercast.5 mph77%29.95 "Hg19 mi
8:30 AM81 °FOvercast.No wind72%29.95 "Hg6 mi
7:30 AM74 °FMild.2 mph87%29.94 "HgN/A
6:30 AM72 °FLow clouds.8 mph87%29.92 "Hg5 mi
5:30 AM73 °FMild.3 mph85%29.90 "HgN/A
4:30 AM73 °FMild.1 mph85%29.88 "HgN/A
Weather by CustomWeather, © 2015

See weather overviewHow to use our weather pages